Weather History for Guatemala Aeropuertola Aurora, Guatemala

Change the Weather History Date:

Thursday, October 24, 2013

  Actual Average Record
Temperature  
Mean Temperature 68 °F -  
Max Temperature 74 °F 71 °F - ()
Min Temperature 62 °F 57 °F - ()
Cooling Degree Days 3    
Growing Degree Days 18 (Base 50)    
Moisture  
Dew Point 62 °F    
Average Humidity 88    
Maximum Humidity 100    
Minimum Humidity 23    
Precipitation  
Precipitation 0.01 in - - ()
Sea Level Pressure  
Sea Level Pressure 30.20 in    
Wind  
Wind Speed 6 mph ()    
Max Wind Speed 12 mph    
Max Gust Speed -    
Visibility 5.7 miles    
Events Rain    
T = Trace of Precipitation, MM = Missing Value Source: Averaged Metar Reports

Daily Weather History Graph

Daily Weather History Graph

Search for Another Location

Airport:

Trip Planner

Search our weather history database for the weather conditions in past years. The results will help you decide how hot, cold, wet, or windy it might be!

Date:

Astronomy

Oct. 24, 2013 Rise Set
Actual Time 5:55 AM CST 5:36 PM CST
Civil Twilight 5:33 AM CST 5:58 PM CST
Nautical Twilight 5:08 AM CST 6:23 PM CST
Astronomical Twilight 4:43 AM CST 6:49 PM CST
Moon 10:19 PM CST (10/24) 10:36 AM CST (10/24)
Length of Visible Light 12h 25m
Length of Day
11h 41m
Waning Gibbous, 70% of the Moon is Illuminated
Oct 24
Waning Gibbous
Oct 26
Last Quarter
Nov 3
New
Nov 9
First Quarter
Nov 17
Full

Hourly Weather History & Observations

Time (CST) Temp. Dew Point Humidity Pressure Visibility Wind Dir Wind Speed Gust Speed Precip Events Conditions
12:00 AM 64.4 °F 64.4 °F 100% 30.24 in 6.2 mi NNW 4.6 mph - N/A   Light Drizzle
12:35 AM - - N/A% - 6.2 mi North 6.9 mph - N/A   Scattered Clouds
1:00 AM 64.4 °F 64.4 °F 100% 30.21 in 6.2 mi North 6.9 mph - N/A   Scattered Clouds
2:00 AM 64.4 °F 64.4 °F 100% 30.21 in 6.2 mi North 6.9 mph - N/A   Scattered Clouds
3:00 AM 64.4 °F 62.6 °F 94% 30.18 in 6.2 mi North 6.9 mph - N/A   Mostly Cloudy
4:00 AM 64.4 °F 64.4 °F 100% 30.18 in 6.2 mi North 6.9 mph - N/A   Mostly Cloudy
5:00 AM 64.4 °F 62.6 °F 94% 30.22 in - North - - N/A   Mostly Cloudy
6:00 AM 63 °F 63 °F 99% 29.91 in 25 mi North 6.9 mph - -   Partly Cloudy
6:00 AM 62.6 °F 62.6 °F 100% 30.21 in 6.2 mi North 6.9 mph - N/A   Mostly Cloudy
7:00 AM 64.4 °F 62.6 °F 94% 30.24 in 6.2 mi NNE 6.9 mph - N/A   Mostly Cloudy
7:17 AM - - N/A% - 6.2 mi North 6.9 mph - N/A   Mostly Cloudy
8:00 AM 64.4 °F 62.6 °F 94% 30.27 in 5.0 mi North 6.9 mph - N/A   Mostly Cloudy
9:00 AM 66.2 °F 62.6 °F 88% 30.27 in 5.0 mi North 6.9 mph - N/A   Mostly Cloudy
10:00 AM 73.4 °F 60.8 °F 65% 30.27 in 6.2 mi North 9.2 mph - N/A   Scattered Clouds
11:00 AM 73.4 °F 62.6 °F 69% 30.24 in 6.2 mi North 11.5 mph - N/A   Mostly Cloudy
12:00 PM 74 °F 64 °F 63% 29.90 in 25 mi North 6.9 mph - -   Overcast
12:00 PM 73.4 °F 64.4 °F 73% 30.24 in 6.2 mi North 6.9 mph - N/A   Scattered Clouds
1:00 PM 73.4 °F 33.8 °F 23% 30.18 in 3.7 mi North 11.5 mph - N/A   Mostly Cloudy
1:40 PM - - N/A% - 6.2 mi South 11.5 mph - N/A   Mostly Cloudy
2:00 PM 68.0 °F 64.4 °F 88% 30.15 in 5.0 mi South 9.2 mph - N/A   Light Drizzle
2:18 PM - - N/A% - 3.7 mi South 6.9 mph - N/A Rain Rain
3:00 PM 64.4 °F 64.4 °F 100% 30.15 in 3.7 mi South 4.6 mph - N/A   Overcast
3:15 PM - - N/A% - 5.0 mi South 4.6 mph - N/A   Light Drizzle
4:00 PM 66.2 °F 64.4 °F 94% 30.15 in 6.2 mi SSW 4.6 mph - N/A   Light Drizzle
4:40 PM - - N/A% - 6.2 mi SSW 3.5 mph - N/A   Mostly Cloudy
5:00 PM 66.2 °F 64.4 °F 94% 30.18 in 6.2 mi Calm Calm - N/A   Mostly Cloudy
6:00 PM 66.2 °F 62.6 °F 88% 30.21 in 6.2 mi SE 4.6 mph - N/A   Mostly Cloudy
7:00 PM 64.4 °F 62.6 °F 94% 30.21 in 6.2 mi Calm Calm - N/A   Mostly Cloudy
8:00 PM 66.2 °F 62.6 °F 88% 30.27 in 6.2 mi Calm Calm - N/A   Mostly Cloudy
9:00 PM 64.4 °F 62.6 °F 94% 30.27 in 5.0 mi Calm Calm - N/A   Mostly Cloudy
10:00 PM 64.4 °F 62.6 °F 94% 30.27 in 5.0 mi North 4.6 mph - N/A   Mostly Cloudy
11:00 PM 64.4 °F 62.6 °F 94% 30.27 in 5.0 mi NNE 6.9 mph - N/A   Mostly Cloudy